Year,Month,Day,Hour,Minute,Value (Times are PST for temperature in C)
2016,04,26,00,00,8.80
2016,04,26,00,01,8.80
2016,04,26,00,02,8.80
2016,04,26,00,03,8.80
2016,04,26,00,04,8.80
2016,04,26,00,05,8.80
2016,04,26,00,06,8.80
2016,04,26,00,07,8.70
2016,04,26,00,08,8.70
2016,04,26,00,09,8.70
2016,04,26,00,10,8.60
2016,04,26,00,11,8.60
2016,04,26,00,12,8.50
2016,04,26,00,13,8.50
2016,04,26,00,14,8.40
2016,04,26,00,15,8.40
2016,04,26,00,16,8.30
2016,04,26,00,17,8.20
2016,04,26,00,18,8.20
2016,04,26,00,19,8.10
2016,04,26,00,20,8.00
2016,04,26,00,21,7.90
2016,04,26,00,22,7.90
2016,04,26,00,23,7.80
2016,04,26,00,24,7.80
2016,04,26,00,25,7.70
2016,04,26,00,26,7.70
2016,04,26,00,27,7.60
2016,04,26,00,28,7.60
2016,04,26,00,29,7.50
2016,04,26,00,30,7.50
2016,04,26,00,31,7.50
2016,04,26,00,32,7.40
2016,04,26,00,33,7.40
2016,04,26,00,34,7.40
2016,04,26,00,35,7.30
2016,04,26,00,36,7.30
2016,04,26,00,37,7.30
2016,04,26,00,38,7.30
2016,04,26,00,39,7.30
2016,04,26,00,40,7.30
2016,04,26,00,41,7.40
2016,04,26,00,42,7.40
2016,04,26,00,43,7.40
2016,04,26,00,44,7.40
2016,04,26,00,45,7.50
2016,04,26,00,46,7.50
2016,04,26,00,47,7.50
2016,04,26,00,48,7.50
2016,04,26,00,49,7.50
2016,04,26,00,50,7.60
2016,04,26,00,51,7.50
2016,04,26,00,52,7.50
2016,04,26,00,53,7.50
2016,04,26,00,54,7.50
2016,04,26,00,55,7.50
2016,04,26,00,56,7.50
2016,04,26,00,57,7.50
2016,04,26,00,58,7.40
2016,04,26,00,59,7.50
2016,04,26,01,00,7.50
2016,04,26,01,01,7.40
2016,04,26,01,02,7.50
2016,04,26,01,03,7.40
2016,04,26,01,04,7.40
2016,04,26,01,05,7.40
2016,04,26,01,06,7.40
2016,04,26,01,07,7.40
2016,04,26,01,08,7.40
2016,04,26,01,09,7.40
2016,04,26,01,10,7.40
2016,04,26,01,11,7.40
2016,04,26,01,12,7.40
2016,04,26,01,13,7.40
2016,04,26,01,14,7.40
2016,04,26,01,15,7.40
2016,04,26,01,16,7.30
2016,04,26,01,17,7.30
2016,04,26,01,18,7.30
2016,04,26,01,19,7.30
2016,04,26,01,20,7.30
2016,04,26,01,21,7.40
2016,04,26,01,22,7.40
2016,04,26,01,23,7.40
2016,04,26,01,24,7.40
2016,04,26,01,25,7.40
2016,04,26,01,26,7.30
2016,04,26,01,27,7.30
2016,04,26,01,28,7.30
2016,04,26,01,29,7.30
2016,04,26,01,30,7.30
2016,04,26,01,31,7.30
2016,04,26,01,32,7.20
2016,04,26,01,33,7.20
2016,04,26,01,34,7.20
2016,04,26,01,35,7.10
2016,04,26,01,36,7.10
2016,04,26,01,37,7.00
2016,04,26,01,38,7.00
2016,04,26,01,39,6.90
2016,04,26,01,40,6.90
2016,04,26,01,41,6.80
2016,04,26,01,42,6.80
2016,04,26,01,43,6.80
2016,04,26,01,44,6.80
2016,04,26,01,45,6.90
2016,04,26,01,46,6.90
2016,04,26,01,47,7.00
2016,04,26,01,48,7.00
2016,04,26,01,49,7.10
2016,04,26,01,50,7.20
2016,04,26,01,51,7.20
2016,04,26,01,52,7.20
2016,04,26,01,53,7.20
2016,04,26,01,54,7.20
2016,04,26,01,55,7.30
2016,04,26,01,56,7.30
2016,04,26,01,57,7.40
2016,04,26,01,58,7.40
2016,04,26,01,59,7.50
2016,04,26,02,00,7.60
2016,04,26,02,01,7.60
2016,04,26,02,02,7.60
2016,04,26,02,03,7.60
2016,04,26,02,04,7.60
2016,04,26,02,05,7.60
2016,04,26,02,06,7.60
2016,04,26,02,07,7.60
2016,04,26,02,08,7.60
2016,04,26,02,09,7.60
2016,04,26,02,10,7.60
2016,04,26,02,11,7.60
2016,04,26,02,12,7.60
2016,04,26,02,13,7.60
2016,04,26,02,14,7.60
2016,04,26,02,15,7.60
2016,04,26,02,16,7.50
2016,04,26,02,17,7.50
2016,04,26,02,18,7.50
2016,04,26,02,19,7.50
2016,04,26,02,20,7.40
2016,04,26,02,21,7.40
2016,04,26,02,22,7.40
2016,04,26,02,23,7.40
2016,04,26,02,24,7.40
2016,04,26,02,25,7.40
2016,04,26,02,26,7.40
2016,04,26,02,27,7.40
2016,04,26,02,28,7.40
2016,04,26,02,29,7.50
2016,04,26,02,30,7.50
2016,04,26,02,31,7.60
2016,04,26,02,32,7.60
2016,04,26,02,33,7.60
2016,04,26,02,34,7.60
2016,04,26,02,35,7.70
2016,04,26,02,36,7.70
2016,04,26,02,37,7.70
2016,04,26,02,38,7.70
2016,04,26,02,39,7.70
2016,04,26,02,40,7.70
2016,04,26,02,41,7.70
2016,04,26,02,42,7.70
2016,04,26,02,43,7.70
2016,04,26,02,44,7.70
2016,04,26,02,45,7.70
2016,04,26,02,46,7.80
2016,04,26,02,47,7.80
2016,04,26,02,48,7.80
2016,04,26,02,49,7.80
2016,04,26,02,50,7.80
2016,04,26,02,51,7.90
2016,04,26,02,52,7.90
2016,04,26,02,53,7.90
2016,04,26,02,54,8.00
2016,04,26,02,55,8.00
2016,04,26,02,56,8.00
2016,04,26,02,57,8.00
2016,04,26,02,58,8.00
2016,04,26,02,59,8.00
2016,04,26,03,00,7.90
2016,04,26,03,01,7.90
2016,04,26,03,02,7.90
2016,04,26,03,03,7.90
2016,04,26,03,04,7.90
2016,04,26,03,05,7.80
2016,04,26,03,06,7.80
2016,04,26,03,07,7.80
2016,04,26,03,08,7.70
2016,04,26,03,09,7.70
2016,04,26,03,10,7.70
2016,04,26,03,11,7.70
2016,04,26,03,12,7.60
2016,04,26,03,13,7.60
2016,04,26,03,14,7.60
2016,04,26,03,15,7.60
2016,04,26,03,16,7.70
2016,04,26,03,17,7.60
2016,04,26,03,18,7.60
2016,04,26,03,19,7.60
2016,04,26,03,20,7.60
2016,04,26,03,21,7.60
2016,04,26,03,22,7.60
2016,04,26,03,23,7.60
2016,04,26,03,24,7.50
2016,04,26,03,25,7.50
2016,04,26,03,26,7.40
2016,04,26,03,27,7.40
2016,04,26,03,28,7.40
2016,04,26,03,29,7.40
2016,04,26,03,30,7.30
2016,04,26,03,31,7.30
2016,04,26,03,32,7.30
2016,04,26,03,33,7.30
2016,04,26,03,34,7.30
2016,04,26,03,35,7.30
2016,04,26,03,36,7.30
2016,04,26,03,37,7.30
2016,04,26,03,38,7.30
2016,04,26,03,39,7.30
2016,04,26,03,40,7.30
2016,04,26,03,41,7.30
2016,04,26,03,42,7.20
2016,04,26,03,43,7.20
2016,04,26,03,44,7.20
2016,04,26,03,45,7.20
2016,04,26,03,46,7.20
2016,04,26,03,47,7.10
2016,04,26,03,48,7.10
2016,04,26,03,49,7.00
2016,04,26,03,50,7.00
2016,04,26,03,51,6.90
2016,04,26,03,52,6.90
2016,04,26,03,53,6.90
2016,04,26,03,54,6.90
2016,04,26,03,55,6.90
2016,04,26,03,56,6.90
2016,04,26,03,57,6.90
2016,04,26,03,58,6.90
2016,04,26,03,59,6.80
2016,04,26,04,00,6.80
2016,04,26,04,01,6.80
2016,04,26,04,02,6.80
2016,04,26,04,03,6.80
2016,04,26,04,04,6.80
2016,04,26,04,05,6.80
2016,04,26,04,06,6.80
2016,04,26,04,07,6.80
2016,04,26,04,08,6.90
2016,04,26,04,09,6.90
2016,04,26,04,10,7.00
2016,04,26,04,11,7.00
2016,04,26,04,12,7.10
2016,04,26,04,13,7.10
2016,04,26,04,14,7.20
2016,04,26,04,15,7.20
2016,04,26,04,16,7.20
2016,04,26,04,17,7.20
2016,04,26,04,18,7.20
2016,04,26,04,19,7.20
2016,04,26,04,20,7.20
2016,04,26,04,21,7.20
2016,04,26,04,22,7.20
2016,04,26,04,23,7.20
2016,04,26,04,24,7.20
2016,04,26,04,25,7.20
2016,04,26,04,26,7.20
2016,04,26,04,27,7.20
2016,04,26,04,28,7.20
2016,04,26,04,29,7.20
2016,04,26,04,30,7.20
2016,04,26,04,31,7.20
2016,04,26,04,32,7.20
2016,04,26,04,33,7.20
2016,04,26,04,34,7.20
2016,04,26,04,35,7.20
2016,04,26,04,36,7.20
2016,04,26,04,37,7.20
2016,04,26,04,38,7.20
2016,04,26,04,39,7.20
2016,04,26,04,40,7.20
2016,04,26,04,41,7.30
2016,04,26,04,42,7.30
2016,04,26,04,43,7.30
2016,04,26,04,44,7.20
2016,04,26,04,45,7.20
2016,04,26,04,46,7.20
2016,04,26,04,47,7.20
2016,04,26,04,48,7.20
2016,04,26,04,49,7.20
2016,04,26,04,50,7.20
2016,04,26,04,51,7.20
2016,04,26,04,52,7.20
2016,04,26,04,53,7.20
2016,04,26,04,54,7.10
2016,04,26,04,55,7.10
2016,04,26,04,56,7.10
2016,04,26,04,57,7.10
2016,04,26,04,58,7.10
2016,04,26,04,59,7.00
2016,04,26,05,00,7.00
2016,04,26,05,01,7.00
2016,04,26,05,02,6.90
2016,04,26,05,03,6.90
2016,04,26,05,04,6.90
2016,04,26,05,05,6.90
2016,04,26,05,06,6.90
2016,04,26,05,07,6.90
2016,04,26,05,08,6.90
2016,04,26,05,09,6.90
2016,04,26,05,10,6.90
2016,04,26,05,11,6.80
2016,04,26,05,12,6.80
2016,04,26,05,13,6.90
2016,04,26,05,14,6.90
2016,04,26,05,15,6.90
2016,04,26,05,16,6.90
2016,04,26,05,17,6.90
2016,04,26,05,18,6.90
2016,04,26,05,19,7.00
2016,04,26,05,20,6.90
2016,04,26,05,21,6.90
2016,04,26,05,22,6.90
2016,04,26,05,23,6.80
2016,04,26,05,24,6.80
2016,04,26,05,25,6.70
2016,04,26,05,26,6.70
2016,04,26,05,27,6.60
2016,04,26,05,28,6.60
2016,04,26,05,29,6.60
2016,04,26,05,30,6.50
2016,04,26,05,31,6.50
2016,04,26,05,32,6.40
2016,04,26,05,33,6.40
2016,04,26,05,34,6.40
2016,04,26,05,35,6.30
2016,04,26,05,36,6.30
2016,04,26,05,37,6.30
2016,04,26,05,38,6.20
2016,04,26,05,39,6.20
2016,04,26,05,40,6.20
2016,04,26,05,41,6.20
2016,04,26,05,42,6.20
2016,04,26,05,43,6.20
2016,04,26,05,44,6.20
2016,04,26,05,45,6.20
2016,04,26,05,46,6.20
2016,04,26,05,47,6.20
2016,04,26,05,48,6.20
2016,04,26,05,49,6.20
2016,04,26,05,50,6.20
2016,04,26,05,51,6.20
2016,04,26,05,52,6.20
2016,04,26,05,53,6.20
2016,04,26,05,54,6.20
2016,04,26,05,55,6.20
2016,04,26,05,56,6.20
2016,04,26,05,57,6.20
2016,04,26,05,58,6.20
2016,04,26,05,59,6.20
2016,04,26,06,00,6.20
2016,04,26,06,01,6.30
2016,04,26,06,02,6.30
2016,04,26,06,03,6.30
2016,04,26,06,04,6.30
2016,04,26,06,05,6.30
2016,04,26,06,06,6.30
2016,04,26,06,07,6.30
2016,04,26,06,08,6.20
2016,04,26,06,09,6.20
2016,04,26,06,10,6.20
2016,04,26,06,11,6.20
2016,04,26,06,12,6.20
2016,04,26,06,13,6.20
2016,04,26,06,14,6.20
2016,04,26,06,15,6.20
2016,04,26,06,16,6.20
2016,04,26,06,17,6.20
2016,04,26,06,18,6.20
2016,04,26,06,19,6.30
2016,04,26,06,20,6.30
2016,04,26,06,21,6.30
2016,04,26,06,22,6.30
2016,04,26,06,23,6.30
2016,04,26,06,24,6.30
2016,04,26,06,25,6.40
2016,04,26,06,26,6.40
2016,04,26,06,27,6.50
2016,04,26,06,28,6.50
2016,04,26,06,29,6.50
2016,04,26,06,30,6.50
2016,04,26,06,31,6.50
2016,04,26,06,32,6.50
2016,04,26,06,33,6.50
2016,04,26,06,34,6.60
2016,04,26,06,35,6.50
2016,04,26,06,36,6.50
2016,04,26,06,37,6.50
2016,04,26,06,38,6.40
2016,04,26,06,39,6.40
2016,04,26,06,40,6.50
2016,04,26,06,41,6.50
2016,04,26,06,42,6.50
2016,04,26,06,43,6.60
2016,04,26,06,44,6.70
2016,04,26,06,45,6.70
2016,04,26,06,46,6.70
2016,04,26,06,47,6.70
2016,04,26,06,48,6.70
2016,04,26,06,49,6.70
2016,04,26,06,50,6.70
2016,04,26,06,51,6.70
2016,04,26,06,52,6.70
2016,04,26,06,53,6.60
2016,04,26,06,54,6.60
2016,04,26,06,55,6.60
2016,04,26,06,56,6.60
2016,04,26,06,57,6.60
2016,04,26,06,58,6.60
2016,04,26,06,59,6.60
2016,04,26,07,00,6.60
2016,04,26,07,01,6.60
2016,04,26,07,02,6.70
2016,04,26,07,03,6.70
2016,04,26,07,04,6.70
2016,04,26,07,05,6.70
2016,04,26,07,06,6.70
2016,04,26,07,07,6.70
2016,04,26,07,08,6.70
2016,04,26,07,09,6.70
2016,04,26,07,10,6.70
2016,04,26,07,11,6.80
2016,04,26,07,12,6.80
2016,04,26,07,13,6.80
2016,04,26,07,14,6.80
2016,04,26,07,15,6.80
2016,04,26,07,16,6.80
2016,04,26,07,17,6.80
2016,04,26,07,18,6.90
2016,04,26,07,19,6.90
2016,04,26,07,20,6.90
2016,04,26,07,21,6.90
2016,04,26,07,22,6.90
2016,04,26,07,23,7.00
2016,04,26,07,24,7.00
2016,04,26,07,25,7.10
2016,04,26,07,26,7.10
2016,04,26,07,27,7.10
2016,04,26,07,28,7.20
2016,04,26,07,29,7.20
2016,04,26,07,30,7.20
2016,04,26,07,31,7.20
2016,04,26,07,32,7.20
2016,04,26,07,33,7.30
2016,04,26,07,34,7.30
2016,04,26,07,35,7.30
2016,04,26,07,36,7.40
2016,04,26,07,37,7.40
2016,04,26,07,38,7.40
2016,04,26,07,39,7.50
2016,04,26,07,40,7.50
2016,04,26,07,41,7.50
2016,04,26,07,42,7.50
2016,04,26,07,43,7.60
2016,04,26,07,44,7.60
2016,04,26,07,45,7.60
2016,04,26,07,46,7.70
2016,04,26,07,47,7.70
2016,04,26,07,48,7.70
2016,04,26,07,49,7.70
2016,04,26,07,50,7.70
2016,04,26,07,51,7.80
2016,04,26,07,52,7.80
2016,04,26,07,53,7.90
2016,04,26,07,54,7.90
2016,04,26,07,55,8.00
2016,04,26,07,56,8.00
2016,04,26,07,57,8.10
2016,04,26,07,58,8.10
2016,04,26,07,59,8.10
2016,04,26,08,00,8.10
2016,04,26,08,01,8.20
2016,04,26,08,02,8.20
2016,04,26,08,03,8.20
2016,04,26,08,04,8.30
2016,04,26,08,05,8.30
2016,04,26,08,06,8.30
2016,04,26,08,07,8.40
2016,04,26,08,08,8.40
2016,04,26,08,09,8.40
2016,04,26,08,10,8.40
2016,04,26,08,11,8.50
2016,04,26,08,12,8.50
2016,04,26,08,13,8.50
2016,04,26,08,14,8.60
2016,04,26,08,15,8.60
2016,04,26,08,16,8.70
2016,04,26,08,17,8.70
2016,04,26,08,18,8.80
2016,04,26,08,19,8.80
2016,04,26,08,20,8.90
2016,04,26,08,21,8.90
2016,04,26,08,22,8.90
2016,04,26,08,23,8.90
2016,04,26,08,24,8.90
2016,04,26,08,25,8.90
2016,04,26,08,26,9.00
2016,04,26,08,27,9.00
2016,04,26,08,28,9.10
2016,04,26,08,29,9.10
2016,04,26,08,30,9.10
2016,04,26,08,31,9.10
2016,04,26,08,32,9.10
2016,04,26,08,33,9.10
2016,04,26,08,34,9.10
2016,04,26,08,35,9.10
2016,04,26,08,36,9.20
2016,04,26,08,37,9.20
2016,04,26,08,38,9.30
2016,04,26,08,39,9.30
2016,04,26,08,40,9.30
2016,04,26,08,41,9.40
2016,04,26,08,42,9.40
2016,04,26,08,43,9.30
2016,04,26,08,44,9.30
2016,04,26,08,45,9.40
2016,04,26,08,46,9.50
2016,04,26,08,47,9.50
2016,04,26,08,48,9.60
2016,04,26,08,49,9.60
2016,04,26,08,50,9.70
2016,04,26,08,51,9.70
2016,04,26,08,52,9.80
2016,04,26,08,53,9.80
2016,04,26,08,54,9.80
2016,04,26,08,55,9.80
2016,04,26,08,56,9.80
2016,04,26,08,57,9.90
2016,04,26,08,58,9.90
2016,04,26,08,59,9.80
2016,04,26,09,00,9.90
2016,04,26,09,01,9.80
2016,04,26,09,02,9.90
2016,04,26,09,03,9.90
2016,04,26,09,04,9.90
2016,04,26,09,05,9.90
2016,04,26,09,06,9.90
2016,04,26,09,07,9.90
2016,04,26,09,08,9.80
2016,04,26,09,09,9.80
2016,04,26,09,10,9.80
2016,04,26,09,11,9.80
2016,04,26,09,12,9.90
2016,04,26,09,13,10.00
2016,04,26,09,14,10.00
2016,04,26,09,15,10.10
2016,04,26,09,16,10.10
2016,04,26,09,17,10.10
2016,04,26,09,18,10.10
2016,04,26,09,19,10.20
2016,04,26,09,20,10.20
2016,04,26,09,21,10.20
2016,04,26,09,22,10.20
2016,04,26,09,23,10.20
2016,04,26,09,24,10.20
2016,04,26,09,25,10.20
2016,04,26,09,26,10.20
2016,04,26,09,27,10.20
2016,04,26,09,28,10.30
2016,04,26,09,29,10.30
2016,04,26,09,30,10.30
2016,04,26,09,31,10.20
2016,04,26,09,32,10.20
2016,04,26,09,33,10.10
2016,04,26,09,34,10.10
2016,04,26,09,35,10.20
2016,04,26,09,36,10.20
2016,04,26,09,37,10.20
2016,04,26,09,38,10.30
2016,04,26,09,39,10.30
2016,04,26,09,40,10.40
2016,04,26,09,41,10.40
2016,04,26,09,42,10.40
2016,04,26,09,43,10.50
2016,04,26,09,44,10.50
2016,04,26,09,45,10.50
2016,04,26,09,46,10.60
2016,04,26,09,47,10.70
2016,04,26,09,48,10.70
2016,04,26,09,49,10.70
2016,04,26,09,50,10.70
2016,04,26,09,51,10.60
2016,04,26,09,52,10.60
2016,04,26,09,53,10.50
2016,04,26,09,54,10.50
2016,04,26,09,55,10.50
2016,04,26,09,56,10.50
2016,04,26,09,57,10.40
2016,04,26,09,58,10.30
2016,04,26,09,59,10.20
2016,04,26,10,00,10.20
2016,04,26,10,01,10.20
2016,04,26,10,02,10.20
2016,04,26,10,03,10.20
2016,04,26,10,04,10.30
2016,04,26,10,05,10.30
2016,04,26,10,06,10.30
2016,04,26,10,07,10.30
2016,04,26,10,08,10.40
2016,04,26,10,09,10.40
2016,04,26,10,10,10.50
2016,04,26,10,11,10.50
2016,04,26,10,12,10.50
2016,04,26,10,13,10.50
2016,04,26,10,14,10.50
2016,04,26,10,15,10.50
2016,04,26,10,16,10.50
2016,04,26,10,17,10.40
2016,04,26,10,18,10.40
2016,04,26,10,19,10.40
2016,04,26,10,20,10.30
2016,04,26,10,21,10.30
2016,04,26,10,22,10.30
2016,04,26,10,23,10.30
2016,04,26,10,24,10.40
2016,04,26,10,25,10.40
2016,04,26,10,26,10.40
2016,04,26,10,27,10.40
2016,04,26,10,28,10.50
2016,04,26,10,29,10.60
2016,04,26,10,30,10.60
2016,04,26,10,31,10.70
2016,04,26,10,32,10.70
2016,04,26,10,33,10.80
2016,04,26,10,34,10.80
2016,04,26,10,35,10.90
2016,04,26,10,36,11.10
2016,04,26,10,37,11.20
2016,04,26,10,38,11.20
2016,04,26,10,39,11.20
2016,04,26,10,40,11.20
2016,04,26,10,41,11.20
2016,04,26,10,42,11.20
2016,04,26,10,43,11.20
2016,04,26,10,44,11.10
2016,04,26,10,45,11.10
2016,04,26,10,46,11.00
2016,04,26,10,47,11.00
2016,04,26,10,48,11.00
2016,04,26,10,49,11.10
2016,04,26,10,50,11.10
2016,04,26,10,51,11.10
2016,04,26,10,52,11.10
2016,04,26,10,53,11.10
2016,04,26,10,54,11.20
2016,04,26,10,55,11.20
2016,04,26,10,56,11.20
2016,04,26,10,57,11.20
2016,04,26,10,58,11.20
2016,04,26,10,59,11.20
2016,04,26,11,00,11.10
2016,04,26,11,01,11.10
2016,04,26,11,02,11.00
2016,04,26,11,03,11.00
2016,04,26,11,04,11.00
2016,04,26,11,05,11.00
2016,04,26,11,06,11.00
2016,04,26,11,07,11.10
2016,04,26,11,08,11.20
2016,04,26,11,09,11.20
2016,04,26,11,10,11.20
2016,04,26,11,11,11.20
2016,04,26,11,12,11.20
2016,04,26,11,13,11.20
2016,04,26,11,14,11.20
2016,04,26,11,15,11.20
2016,04,26,11,16,11.20
2016,04,26,11,17,11.20
2016,04,26,11,18,11.20
2016,04,26,11,19,11.20
2016,04,26,11,20,11.20
2016,04,26,11,21,11.30
2016,04,26,11,22,11.30
2016,04,26,11,23,11.30
2016,04,26,11,24,11.30
2016,04,26,11,25,11.40
2016,04,26,11,26,11.40
2016,04,26,11,27,11.50
2016,04,26,11,28,11.60
2016,04,26,11,29,11.50
2016,04,26,11,30,11.50
2016,04,26,11,31,11.60
2016,04,26,11,32,11.60
2016,04,26,11,33,11.70
2016,04,26,11,34,11.70
2016,04,26,11,35,11.70
2016,04,26,11,36,11.70
2016,04,26,11,37,11.80
2016,04,26,11,38,11.80
2016,04,26,11,39,11.70
2016,04,26,11,40,11.80
2016,04,26,11,41,11.80
2016,04,26,11,42,11.90
2016,04,26,11,43,11.80
2016,04,26,11,44,11.80
2016,04,26,11,45,11.80
2016,04,26,11,46,11.80
2016,04,26,11,47,11.80
2016,04,26,11,48,11.90
2016,04,26,11,49,11.90
2016,04,26,11,50,11.80
2016,04,26,11,51,11.80
2016,04,26,11,52,11.80
2016,04,26,11,53,11.80
2016,04,26,11,54,11.90
2016,04,26,11,55,12.00
2016,04,26,11,56,12.00
2016,04,26,11,57,12.10
2016,04,26,11,58,12.10
2016,04,26,11,59,12.10
2016,04,26,12,00,12.20
2016,04,26,12,01,12.20
2016,04,26,12,02,12.30
2016,04,26,12,03,12.30
2016,04,26,12,04,12.30
2016,04,26,12,05,12.30
2016,04,26,12,06,12.30
2016,04,26,12,07,12.30
2016,04,26,12,08,12.30
2016,04,26,12,09,12.30
2016,04,26,12,10,12.40
2016,04,26,12,11,12.40
2016,04,26,12,12,12.50
2016,04,26,12,13,12.50
2016,04,26,12,14,12.50
2016,04,26,12,15,12.60
2016,04,26,12,16,12.50
2016,04,26,12,17,12.50
2016,04,26,12,18,12.70
2016,04,26,12,19,12.80
2016,04,26,12,20,12.80
2016,04,26,12,21,12.80
2016,04,26,12,22,12.80
2016,04,26,12,23,12.80
2016,04,26,12,24,12.90
2016,04,26,12,25,13.00
2016,04,26,12,26,12.90
2016,04,26,12,27,12.80
2016,04,26,12,28,12.70
2016,04,26,12,29,12.60
2016,04,26,12,30,12.60
2016,04,26,12,31,12.60
2016,04,26,12,32,12.70
2016,04,26,12,33,12.80
2016,04,26,12,34,12.90
2016,04,26,12,35,13.10
2016,04,26,12,36,13.20
2016,04,26,12,37,13.40
2016,04,26,12,38,13.50
2016,04,26,12,39,13.70
2016,04,26,12,40,13.80
2016,04,26,12,41,13.70
2016,04,26,12,42,13.70
2016,04,26,12,43,13.70
2016,04,26,12,44,13.70
2016,04,26,12,45,13.80
2016,04,26,12,46,13.90
2016,04,26,12,47,13.90
2016,04,26,12,48,14.00
2016,04,26,12,49,14.10
2016,04,26,12,50,14.00
2016,04,26,12,51,14.00
2016,04,26,12,52,14.00
2016,04,26,12,53,14.00
2016,04,26,12,54,14.00
2016,04,26,12,55,14.10
2016,04,26,12,56,14.20
2016,04,26,12,57,14.20
2016,04,26,12,58,14.10
2016,04,26,12,59,14.00
2016,04,26,13,00,13.80
2016,04,26,13,01,13.70
2016,04,26,13,02,13.60
2016,04,26,13,03,13.60
2016,04,26,13,04,13.70
2016,04,26,13,05,13.80
2016,04,26,13,06,13.80
2016,04,26,13,07,13.70
2016,04,26,13,08,13.70
2016,04,26,13,09,13.80
2016,04,26,13,10,13.90
2016,04,26,13,11,13.90
2016,04,26,13,12,13.90
2016,04,26,13,13,13.80
2016,04,26,13,14,13.80
2016,04,26,13,15,13.70
2016,04,26,13,16,13.70
2016,04,26,13,17,13.70
2016,04,26,13,18,13.80
2016,04,26,13,19,13.90
2016,04,26,13,20,14.00
2016,04,26,13,21,13.90
2016,04,26,13,22,13.80
2016,04,26,13,23,13.80
2016,04,26,13,24,13.80
2016,04,26,13,25,13.80
2016,04,26,13,26,13.80
2016,04,26,13,27,13.80
2016,04,26,13,28,13.90
2016,04,26,13,29,13.90
2016,04,26,13,30,14.00
2016,04,26,13,31,14.10
2016,04,26,13,32,14.20
2016,04,26,13,33,14.20
2016,04,26,13,34,14.00
2016,04,26,13,35,13.90
2016,04,26,13,36,13.90
2016,04,26,13,37,13.90
2016,04,26,13,38,13.90
2016,04,26,13,39,14.00
2016,04,26,13,40,14.10
2016,04,26,13,41,14.20
2016,04,26,13,42,14.20
2016,04,26,13,43,14.30
2016,04,26,13,44,14.30
2016,04,26,13,45,14.20
2016,04,26,13,46,14.10
2016,04,26,13,47,14.10
2016,04,26,13,48,14.20
2016,04,26,13,49,14.40
2016,04,26,13,50,14.50
2016,04,26,13,51,14.50
2016,04,26,13,52,14.60
2016,04,26,13,53,14.70
2016,04,26,13,54,14.80
2016,04,26,13,55,14.90
2016,04,26,13,56,15.00
2016,04,26,13,57,15.00
2016,04,26,13,58,14.80
2016,04,26,13,59,14.60
2016,04,26,14,00,14.50
2016,04,26,14,01,14.50
2016,04,26,14,02,14.40
2016,04,26,14,03,14.40
2016,04,26,14,04,14.30
2016,04,26,14,05,14.30
2016,04,26,14,06,14.20
2016,04,26,14,07,14.00
2016,04,26,14,08,13.80
2016,04,26,14,09,13.70
2016,04,26,14,10,13.70
2016,04,26,14,11,13.60
2016,04,26,14,12,13.50
2016,04,26,14,13,13.40
2016,04,26,14,14,13.30
2016,04,26,14,15,13.30
2016,04,26,14,16,13.30
2016,04,26,14,17,13.30
2016,04,26,14,18,13.40
2016,04,26,14,19,13.40
2016,04,26,14,20,13.40
2016,04,26,14,21,13.50
2016,04,26,14,22,13.60
2016,04,26,14,23,13.80
2016,04,26,14,24,13.80
2016,04,26,14,25,13.80
2016,04,26,14,26,13.80
2016,04,26,14,27,13.70
2016,04,26,14,28,13.60
2016,04,26,14,29,13.50
2016,04,26,14,30,13.50
2016,04,26,14,31,13.40
2016,04,26,14,32,13.40
2016,04,26,14,33,13.50
2016,04,26,14,34,13.60
2016,04,26,14,35,13.50
2016,04,26,14,36,13.30
2016,04,26,14,37,13.30
2016,04,26,14,38,13.50
2016,04,26,14,39,13.60
2016,04,26,14,40,13.50
2016,04,26,14,41,13.50
2016,04,26,14,42,13.50
2016,04,26,14,43,13.50
2016,04,26,14,44,13.40
2016,04,26,14,45,13.50
2016,04,26,14,46,13.50
2016,04,26,14,47,13.40
2016,04,26,14,48,13.30
2016,04,26,14,49,13.40
2016,04,26,14,50,13.50
2016,04,26,14,51,13.60
2016,04,26,14,52,13.70
2016,04,26,14,53,13.80
2016,04,26,14,54,13.80
2016,04,26,14,55,14.00
2016,04,26,14,56,14.00
2016,04,26,14,57,14.10
2016,04,26,14,58,14.20
2016,04,26,14,59,14.10
2016,04,26,15,00,14.00
2016,04,26,15,01,13.90
2016,04,26,15,02,13.80
2016,04,26,15,03,13.70
2016,04,26,15,04,13.70
2016,04,26,15,05,13.70
2016,04,26,15,06,13.70
2016,04,26,15,07,13.70
2016,04,26,15,08,13.70
2016,04,26,15,09,13.70
2016,04,26,15,10,13.70
2016,04,26,15,11,13.80
2016,04,26,15,12,13.80
2016,04,26,15,13,13.80
2016,04,26,15,14,13.80
2016,04,26,15,15,13.80
2016,04,26,15,16,13.70
2016,04,26,15,17,13.60
2016,04,26,15,18,13.60
2016,04,26,15,19,13.70
2016,04,26,15,20,13.80
2016,04,26,15,21,13.80
2016,04,26,15,22,13.80
2016,04,26,15,23,13.90
2016,04,26,15,24,13.90
2016,04,26,15,25,13.90
2016,04,26,15,26,14.00
2016,04,26,15,27,14.00
2016,04,26,15,28,14.00
2016,04,26,15,29,13.90
2016,04,26,15,30,13.90
2016,04,26,15,31,13.80
2016,04,26,15,32,13.80
2016,04,26,15,33,13.80
2016,04,26,15,34,13.70
2016,04,26,15,35,13.70
2016,04,26,15,36,13.60
2016,04,26,15,37,13.50
2016,04,26,15,38,13.50
2016,04,26,15,39,13.40
2016,04,26,15,40,13.30
2016,04,26,15,41,13.30
2016,04,26,15,42,13.30
2016,04,26,15,43,13.30
2016,04,26,15,44,13.30
2016,04,26,15,45,13.30
2016,04,26,15,46,13.40
2016,04,26,15,47,13.40
2016,04,26,15,48,13.40
2016,04,26,15,49,13.50
2016,04,26,15,50,13.50
2016,04,26,15,51,13.60
2016,04,26,15,52,13.50
2016,04,26,15,53,13.40
2016,04,26,15,54,13.40
2016,04,26,15,55,13.40
2016,04,26,15,56,13.40
2016,04,26,15,57,13.40
2016,04,26,15,58,13.40
2016,04,26,15,59,13.30
2016,04,26,16,00,13.30
2016,04,26,16,01,13.30
2016,04,26,16,02,13.20
2016,04,26,16,03,13.20
2016,04,26,16,04,13.20
2016,04,26,16,05,13.20
2016,04,26,16,06,13.20
2016,04,26,16,07,13.20
2016,04,26,16,08,13.10
2016,04,26,16,09,13.10
2016,04,26,16,10,13.00
2016,04,26,16,11,12.90
2016,04,26,16,12,12.80
2016,04,26,16,13,12.80
2016,04,26,16,14,12.80
2016,04,26,16,15,12.70
2016,04,26,16,16,12.70
2016,04,26,16,17,12.70
2016,04,26,16,18,12.70
2016,04,26,16,19,12.60
2016,04,26,16,20,12.50
2016,04,26,16,21,12.40
2016,04,26,16,22,12.40
2016,04,26,16,23,12.40
2016,04,26,16,24,12.30
2016,04,26,16,25,12.30
2016,04,26,16,26,12.30
2016,04,26,16,27,12.30
2016,04,26,16,28,12.30
2016,04,26,16,29,12.30
2016,04,26,16,30,12.30
2016,04,26,16,31,12.30
2016,04,26,16,32,12.30
2016,04,26,16,33,12.30
2016,04,26,16,34,12.30
2016,04,26,16,35,12.30
2016,04,26,16,36,12.30
2016,04,26,16,37,12.20
2016,04,26,16,38,12.20
2016,04,26,16,39,12.20
2016,04,26,16,40,12.10
2016,04,26,16,41,12.10
2016,04,26,16,42,12.10
2016,04,26,16,43,12.10
2016,04,26,16,44,12.00
2016,04,26,16,45,12.00
2016,04,26,16,46,12.00
2016,04,26,16,47,11.90
2016,04,26,16,48,11.90
2016,04,26,16,49,11.90
2016,04,26,16,50,11.90
2016,04,26,16,51,11.90
2016,04,26,16,52,11.90
2016,04,26,16,53,11.90
2016,04,26,16,54,11.90
2016,04,26,16,55,11.80
2016,04,26,16,56,11.80
2016,04,26,16,57,11.80
2016,04,26,16,58,11.80
2016,04,26,16,59,11.80
2016,04,26,17,00,11.80
2016,04,26,17,01,11.80
2016,04,26,17,02,11.80
2016,04,26,17,03,11.80
2016,04,26,17,04,11.80
2016,04,26,17,05,11.70
2016,04,26,17,06,11.70
2016,04,26,17,07,11.80
2016,04,26,17,08,11.80
2016,04,26,17,09,11.80
2016,04,26,17,10,11.80
2016,04,26,17,11,11.90
2016,04,26,17,12,11.90
2016,04,26,17,13,11.90
2016,04,26,17,14,11.90
2016,04,26,17,15,12.00
2016,04,26,17,16,12.00
2016,04,26,17,17,12.00
2016,04,26,17,18,12.00
2016,04,26,17,19,12.00
2016,04,26,17,20,12.00
2016,04,26,17,21,12.00
2016,04,26,17,22,12.00
2016,04,26,17,23,12.00
2016,04,26,17,24,11.90
2016,04,26,17,25,11.90
2016,04,26,17,26,11.90
2016,04,26,17,27,11.90
2016,04,26,17,28,11.90
2016,04,26,17,29,11.90
2016,04,26,17,30,11.90
2016,04,26,17,31,11.90
2016,04,26,17,32,11.90
2016,04,26,17,33,11.90
2016,04,26,17,34,11.90
2016,04,26,17,35,11.90
2016,04,26,17,36,11.90
2016,04,26,17,37,11.90
2016,04,26,17,38,11.90
2016,04,26,17,39,11.90
2016,04,26,17,40,11.90
2016,04,26,17,41,11.80
2016,04,26,17,42,11.80
2016,04,26,17,43,11.80